Regional Weather Roundup
Issued by NWS

Home | Current Version | Previous Version | Graphics & Text | Print | Product List | Glossary On
Versions: 1 2 3 4 5 6 7 8 9 10 11 12 13 14 15 16 17 18 19 20 21 22 23 24 25 26 27 28 29 30 31 32 33 34 35 36 37 38 39 40 41 42 43 44 45 46 47 48 49 50
213
ASUS43 KMKX 270811
RWRWI

WISCONSIN REGIONAL WEATHER ROUNDUP
NATIONAL WEATHER SERVICE MILWAUKEE/SULLIVAN WI
300 AM CDT TUE JUN 27 2017

NOTE: "FAIR" INDICATES FEW OR NO CLOUDS BELOW 12,000 FEET WITH NO
SIGNIFICANT WEATHER AND/OR OBSTRUCTIONS TO VISIBILITY.

WIZ001-002-006>008-014>016-023>028-270900-
NORTHWEST WISCONSIN

CITY           SKY/WX    TMP DP  RH WIND       PRES   REMARKS
SUPERIOR ARPT  NOT AVBL
ASHLAND        CLOUDY    52  48  86 SW8       30.03S
HAYWARD        CLEAR     49  46  90 CALM      30.06F
SIREN          CLEAR     45  44  93 CALM      30.07S
CUMBERLAND     CLEAR     48  45  87 SW3       30.08S
RICE LAKE      FOG       48  47  97 CALM      30.09S VSB 1/4
CHETEK         PTCLDY    48  48 100 CALM      30.08S
LADYSMITH      CLOUDY    53  49  84 SW5       30.08S
EAU CLAIRE     CLEAR     51  47  86 SW7       30.08S
MENOMONIE      CLEAR     51  47  87 CALM      30.09S
NEW RICHMOND   CLEAR     50  46  86 SW5       30.10R
OSCEOLA        CLEAR     47  47 100 CALM      30.12S
$$

WIZ003>005-009-010-017-018-270900-
NORTH CENTRAL WISCONSIN

CITY           SKY/WX    TMP DP  RH WIND       PRES   REMARKS
MANITOWISH WTR CLOUDY    47  47 100 CALM      30.04S
ARBOR VITAE    CLOUDY    52  49  90 CALM      30.04S
WOODRUFF       CLOUDY    52  49  90 CALM      30.04S
RHINELANDER    PTCLDY    45  45 100 W7        30.05S
EAGLE RIVER    CLEAR     44  44 100 W6        30.04R
LAND O LAKES   MOCLDY    43  43 100 CALM      30.05R
PHILLIPS       MOCLDY    51  49  95 CALM      30.05S
TOMAHAWK       NOT AVBL
MEDFORD        CLOUDY    50  47  88 W6        30.07S
MERRILL        MOCLDY    41  41 100 CALM      30.07S
$$

WIZ029-030-035-036-043>047-270900-
CENTRAL WISCONSIN

CITY           SKY/WX    TMP DP  RH WIND       PRES   REMARKS
WAUSAU         CLEAR     49  46  90 NW5       30.05S
MOSINEE        CLEAR     46  45  93 W5        30.07S
MARSHFIELD     CLOUDY    51  46  83 W8        30.07S
STEVENS POINT  CLEAR     42  42 100 CALM      30.07S
WAUPACA        CLEAR     52  49  89 W5        30.06S
WAUTOMA        PTCLDY    47  45  93 CALM      30.08S
WISC RAPIDS    PTCLDY    50  46  86 W3        30.09S
CAMP DOUGLAS   CLEAR     45  44  94 W3        30.08F
$$

WIZ011>013-019>022-031-037>040-048>050-270900-
NORTHEAST WISCONSIN

CITY           SKY/WX    TMP DP  RH WIND       PRES   REMARKS
ANTIGO         CLEAR     43  43 100 W3        30.06S
SHAWANO        CLEAR     51  47  87 W5        30.04S
OCONTO         CLEAR     47  46  96 W5        30.02S
STURGEON BAY     N/A     51  50  96 W6          N/A
GREEN BAY      CLEAR     51  50  96 W8        30.04S
MANITOWOC      CLEAR     54  49  83 W7        30.04F
APPLETON       CLEAR     46  46 100 W8        30.04S
CLINTONVILLE   CLEAR     48  45  87 W6        30.05S
OSHKOSH        CLEAR     52  46  80 W6        30.06S
$$

WIZ032>034-041-042-053>061-270900-
SOUTHWEST WISCONSIN

CITY           SKY/WX    TMP DP  RH WIND       PRES   REMARKS
LA CROSSE      CLEAR     56  49  77 SE6       30.10S
SPARTA         CLEAR     41  41 100 CALM      30.11S
VIROQUA        CLEAR     51  47  88 W6        30.11S
BOSCOBEL       CLEAR     49  46  90 SW3       30.12F
PRAIRIE DU CHI PTCLDY    48  46  91 CALM      30.12S
PLATTEVILLE    PTCLDY    51  47  87 CALM      30.12F
$$

WIZ056-057-062-063-064-067-068-270900-
SOUTH CENTRAL WISCONSIN

CITY           SKY/WX    TMP DP  RH WIND       PRES   REMARKS
REEDSBURG      CLEAR     47  47 100 CALM      30.09F
BARABOO/DELLS  CLEAR     46  45  95 CALM      30.09F
LONE ROCK      CLEAR     48  46  93 CALM      30.11S
MINERAL POINT  CLEAR     54  46  76 CALM      30.11F
MADISON        CLEAR     52  46  80 NW3       30.09S
MIDDLETON      CLEAR     50  47  91 CALM      30.10S
WATERTOWN      NOT AVBL
MONROE         CLEAR     54  45  71 W8        30.11S
JANESVILLE     CLEAR     50  50 100 CALM      30.10S
$$

WIZ051-052-058>065-066-070>072-270900-
SOUTHEAST WISCONSIN

CITY           SKY/WX    TMP DP  RH WIND       PRES   REMARKS
MILWAUKEE      PTCLDY    56  48  74 W5        30.08S
WAUKESHA       CLEAR     46  43  87 SW3       30.09F
MILWAUKEE/TIMM CLEAR     48  45  87 SW3       30.08F
RACINE         CLEAR     52  46  80 W6        30.10S
KENOSHA        PTCLDY    48  45  89 W5        30.09S
FOND DU LAC    CLEAR     51  45  79 W5        30.07S
SHEBOYGAN      CLEAR     49  48  97 W5        30.05F
WEST BEND      CLEAR     46  46 100 W3        30.07S
JUNEAU         CLEAR     48  46  90 CALM      30.09S
$$

LSZ147-162-270900-
LAKE SUPERIOR

STATION/POSITION TIME  TEMP    WIND        PRES    WAVE
                       AIR SEA DIR/SP/G            HT/PER
                 (UTC) (F)     (DEG/KT/KT) (MB)    (FT/S)
W MID LAKE BUOY  0750   44 39  270/  8/  8 1016.0S   1
DEVILS ISLAND    0800   54     230/ 10/ 10 1016.2F
SAXON HARBOR     0730   58     190/  7/  9 1016.3S
$$

LMZ867-665-643>646-270900-
LAKE MICHIGAN

STATION/POSITION TIME  TEMP    WIND        PRES    WAVE
                       AIR SEA DIR/SP/G            HT/PER
                 (UTC) (F)     (DEG/KT/KT) (MB)    (FT/S)
CHAMBERS ISLAND  0740   55     250/  2/  8 1015.9S
S GREEN BAY BUOY 0800   57     280/ 12/ 16 1016.3
N MID LAKE BUOY  0750   56 54  240/  8/  8 1016.4R   1
NORTHPORT PIER   0740   56     260/  4/  7 1015.9S
KEWAUNEE LAKESHO 0748   52     300/  4/  6 1016.4S
SHEBOYGAN LAKESH 0800   53     250/ 10/ 11 1017.4F
PORT WASHINGTON  0740   54     260/  4/  6 1019.0S
ATWATER BUOY     0739   57 58  240/  8/  8 1018.3F
MILWAUKEE LAKESH 0750   58     270/  4/  4   N/A
S MID LAKE BUOY  0750   58 61  320/ 10/ 10 1018.4F   2/ 5
KENOSHA   LAKESH 0800   56     270/  6/  9 1018.6
$$

TC  - TEMPERATURE IN CELSIUS
VSB - VISIBILITY IN STATUTE MILES
WCI - WIND CHILL INDEX
HX  - HEAT INDEX





USA.gov is the U.S. government's official web portal to all federal, state and local government web resources and services.